Location: Les Thiberg�res
(47.8554°N, 1.0978°W)
Time: 17:50:17
(UTC+00:00)

STARLINK-1165 - Pass Details

Date: 17 February 2020
Orbit: 554 x 555 km, 53.0° (Epoch: 06 April)

Event Time Altitude Azimuth Distance (km) Brightness Sun altitude
Exits shadow 06:23:49 - 297° (WNW) 1,895 5.7 -8.1°
Reaches altitude 10° 06:23:58 10° 298° (WNW) 1,839 5.7 -8.1°
Maximum altitude 06:28:01 46° 12° (NNE) 749 4.3 -7.4°
Drops below altitude 10° 06:32:03 10° 87° (E) 1,836 7.9 -6.7°
Sets 06:34:21 0° 93° (E) 2,729 9.6 -6.3°
